Location: Lane
(33.5226°N, 79.8788°W)
Time: 03:33:15
(UTC+00:00)

Explorer 7 - Pass Details

Date: 12 October 2022
Orbit: 481 x 665 km, 50.3° (Epoch: 01 December)

Event Time Altitude Azimuth Distance (km) Brightness Sun altitude
Rises 13:14:51 0° 269° (W) 2,945 10.0 21.6°
Reaches altitude 10° 13:17:40 10° 286° (WNW) 2,059 9.2 22.1°
Maximum altitude 13:21:16 21° 335° (NNW) 1,487 8.7 22.8°
Drops below altitude 10° 13:24:55 10° 24° (NNE) 2,089 9.8 23.5°
Sets 13:27:48 0° 40° (NE) 3,002 10.7 24.0°
